www.pogodaiklimat.ru
ПОГОДА в Керманшахе
Время
(UTC), дата
00 9.10
03 9.10
06 9.10
09 9.10
12 9.10
15 9.10
18 9.10
21 9.10
00 10.10
03 10.10
06 10.10
09 10.10
12 10.10
15 10.10
18 10.10
21 10.10
00 11.10
03 11.10
06 11.10
09 11.10
12 11.10
15 11.10
18 11.10
21 11.10
00 12.10
06 12.10
09 12.10
12 12.10
15 12.10
18 12.10
21 12.10
00 13.10
03 13.10
06 13.10
09 13.10
12 13.10
15 13.10
18 13.10
21 13.10
00 14.10
03 14.10
06 14.10
09 14.10
12 14.10
15 14.10
18 14.10
21 14.10
00 15.10
03 15.10
06 15.10
09 15.10
12 15.10
15 15.10
18 15.10
21 15.10
Ветер
(напр.,м/с)
Видим. Явления Облачность Т
(С)
Тd
(С)
f
(%)
Тe
(С)
Тes
(С)
Комфортность P
(гПа)
Po
(гПа)
Тmin
(С)
Tmax
(С)
R
(мм)
R24
(мм)
S
(см)
штиль 0 10 км ясно +12.9 -0.2 40 +13 +13 тепло 1017.7 875.3
В 2 15 км 1/0
[Ac und]
+9.9 -1.0 47 +9 +9 тепло 1019.8 876.1 +9.8 666
Ю 2 10 км 1/0
[Ci fib]
+21.8 +0.9 25 +21 +27 комфорт 1019.1 876.9
ЮВ 2 10 км 5/0
[Ci fib]
+27.7 -0.9 15 +25 +36 комфорт 1016.1 875.2 666
З 7 10 км 4/1 1500 м
[Cu hum Ci fib]
+29.9 -1.3 13 +27 +28 жарко 1014.9 873.3
З 5 10 км 3/0
[Ci fib]
+26.2 +0.3 18 +24 +24 комфорт 1015.8 872.7 +30.5
СЗ 4 10 км 5/0
[Ci fib]
+22.2 +2.0 26 +22 +22 комфорт 1015.7 874.0
штиль 0 10 км 6/0
[Ci fib]
+16.0 +1.3 37 +16 +16 тепло 1015.7 874.2
В 2 10 км 5/3 1350 м
[Cu hum Ci fib]
+14.3 +0.5 39 +14 +14 тепло 1015.2 873.9
С 2 10 км 4/0
[Ci fib]
+10.6 -2.2 41 +10 +10 тепло 1017.2 873.9 +10.6
В 2 9000 м мгла ясно +25.0 -5.8 13 +23 +28 комфорт 1015.7 874.9
СЗ 3 9000 м мгла ясно +29.5 -3.7 11 +26 +36 жарко 1014.5 873.5 666
штиль 0 10 км ясно +30.9 -10.9 6 +27 +33 жарко 1012.7 871.8
З 2 10 км ясно +25.2 -6.7 12 +23 +23 комфорт 1014.6 871.4 +31.7
штиль 0 10 км ясно +18.7 -7.3 16 +19 +19 тепло 1013.1 871.9
В 3 10 км ясно +14.1 -4.9 26 +14 +14 тепло 1013.2 872.0
Ю 2 10 км ясно +11.6 -7.1 26 +11 +11 тепло 1014.0 872.4
штиль 0 10 км ясно +11.2 -6.1 29 +11 +11 тепло 1015.7 872.5 +10.3 666
штиль 0 10 км ясно +22.3 -5.2 15 +21 +28 комфорт 1015.7 873.5
С 2 9000 м мгла ясно +30.4 -9.4 7 +26 +38 жарко 1012.9 871.9 666
ЮЗ 5 10 км 1/0
[Ac lent]
+31.4 -10.9 6 +27 +29 жарко 1011.2 870.0
З 5 10 км 1/0
[Ac lent]
+26.4 -13.9 6 +23 +23 комфорт 1012.8 870.2 +32.1
СЗ 3 10 км 1/0
[Ac lent]
+20.8 -5.7 16 +21 +21 комфорт 1012.6 871.4
В 2 20 км ясно +17.2 -4.7 22 +18 +18 тепло 1011.0 870.9
СВ 2 15 км 4/0
[Ci fib]
+13.5 -5.3 27 +13 +13 тепло 1011.7 870.9
штиль 0 10 км 4/0
[Ci fib]
+20.0 -16.8 7 +19 +26 тепло 1014.4 872.3
З 3 10 км ясно +28.5 -8.0 9 +25 +35 комфорт 1011.7 871.1 666
СЗ 4 10 км 5/5 1350 м
[Cu hum]
+28.8 -1.0 14 +26 +28 жарко 1010.5 869.5
З 7 10 км 8/5 1050 м
[Cb calv Ac As]
+24.5 +2.2 23 +23 +23 комфорт 1013.5 870.6 +30.9
З 3 10 км 6/5 1350 м
[Sc diur, vesp Ac lent]
+22.6 +3.4 28 +22 +22 комфорт 1013.4 872.2
СВ 2 10 км 9/3 1350 м
[Sc diur, vesp Cs]
+18.4 +4.0 38 +19 +19 тепло 1011.9 871.8
ЮЗ 2 10 км 4/0
[Ac As]
+14.7 +2.6 44 +15 +15 тепло 1013.0 872.0
штиль 0 10 км 1/0
[Ci fib]
+12.3 +1.3 47 +12 +12 тепло 1016.4 873.3 +12.3 666
Ю 2 10 км ясно +20.7 +3.9 33 +22 +27 комфорт 1016.3 874.8
штиль 0 10 км 4/0
[Ci fib]
+25.6 +3.2 23 +24 +39 комфорт 1014.8 873.6 666
СЗ 3 10 км 5/4 1500 м
[Sc diur, vesp Ac trans Ci fib]
+26.8 +2.3 20 +25 +27 комфорт 1014.7 872.9
В 2 10 км 3/0
[Ac trans]
+22.8 +2.5 26 +22 +22 комфорт 1016.6 873.1 +28.0 666
ЮВ 2 10 км ясно +21.4 +3.4 31 +22 +22 комфорт 1016.9 875.0
В 4 10 км ясно +17.8 +2.7 36 +18 +18 тепло 1017.1 875.5
С 2 10 км ясно +15.2 +3.3 45 +15 +15 тепло 1017.5 875.5
штиль 0 10 км 5/3 2000 м
[Cu hum Ac trans]
+12.5 +2.4 50 +12 +12 тепло 1020.6 876.7 +11.2 666
В 5 20 км 1/0
[Ac cast]
+21.0 +2.9 30 +21 +24 комфорт 1019.3 877.2
ЮВ 4 20 км 1/1 1500 м
[Cu med, cong Ac cast]
+25.7 +2.1 22 +24 +31 комфорт 1018.5 876.6
З 2 10 км 3/3 1500 м
[Cu med, cong]
+28.1 -5.4 11 +25 +28 комфорт 1015.7 874.0
СЗ 2 10 км 1/1 1500 м
[Cu hum]
+23.0 -8.0 12 +21 +21 комфорт 1017.3 873.9 +28.3
ЮВ 2 10 км ясно +17.6 -3.1 24 +18 +18 тепло 1018.0 875.0
Ю 2 10 км ясно +16.0 -0.3 33 +16 +16 тепло 1017.1 875.0
ЮВ 3 10 км ясно +17.0 -0.5 30 +17 +17 тепло 1016.0 874.8
штиль 0 10 км ясно +11.6 +1.8 51 +11 +11 тепло 1019.2 875.3 +11.5 666
С 2 10 км 1/0
[Ci fib]
+21.1 +1.9 28 +21 +26 комфорт 1018.9 875.9
ЮВ 5 10 км 1/0
[Ci fib]
+27.3 -2.4 14 +25 +31 комфорт 1016.0 874.4 666
С 2 10 км 5/0
[Ci sp]
+28.3 -8.2 9 +25 +29 комфорт 1013.5 872.5
штиль 0 10 км 4/0
[Ci sp]
+23.5 -10.0 10 +21 +21 комфорт 1015.8 872.3 +28.9
СЗ 2 10 км 1/0
[Ci fib]
+16.4 -10.4 15 +17 +17 тепло 1016.0 872.9
В 3 10 км ясно +13.1 -9.7 19 +12 +12 тепло 1015.9 873.5
Местоположение метеостанции Керманшах (Иран): широта 34.27 долгота 47.12 высота над уровнем моря 1322 м.
В архиве по умолчанию представлена погода в Керманшахе за последнюю неделю. Архивные данные за месяц целиком и за предыдущие месяцы, начиная с января 2011 года, Вы можете получить, выбрав интересующий диапазон дат из раскрывающегося списка и нажав кнопку "Найти!".
*Определитесь, кто Вы:
Внимание! Время в таблицах - всемирное. Для получения местного времени необходимо прибавить поправку, которая равна 3.5 ч.
Смотрите также архив погоды в соседних городах и на ближайших метеорологических станциях:
Партнеры нашего сайта:      
Пояснения к столбцам:
  • Ветер - указаны скорость ветра в м/с - средняя за 10 мин, порывы в срок и между сроками (в фигурных скобках) и направление, откуда дует ветер: С - северный,
  • СВ - северо-восточный, В - восточный, ЮВ - юго-восточный, Ю - южный, ЮЗ - юго-западный, З - западный, СЗ - северо-западный.
  • Видимость - горизонтальная дальность видимости в метрах или километрах. При видимости от 1 до 10 км при отсутствии осадков обычно наблюдается дымка, при ухудшении видимости до 1 км и менее - туман. В сухую погоду видимость может ухудшаться дымом, пылью или мглою.
  • Явления - указаны атмосферные явления, наблюдавшиеся в срок или в последний час перед сроком; фигурными скобками обозначены явления, наблюдавшиеся между сроками (за 1-3 часа до срока); квадратными скобками обозначены град или гололедные отложения с указанием их диаметра в мм.
  • Облачность - указаны через наклонную черту общая и нижняя облачность в баллах и высота нижней границы облаков в метрах; квадратными скобками обозначены формы облаков: Ci - перистые, Cs - перисто-слоистые, Cc - перисто-кучевые, Ac - высококучевые, As - высокослоистые, Sc - слоисто-кучевые, Ns - слоисто-дождевые, Cu - кучевые, Cb - кучево-дождевые. Подробнее классификацию облаков см. в Атласе облаков (PDF).
  • T - Температура воздуха - температура, измеренная на высоте 2 м над землей.
  • Td - Температура точки росы - температура, при понижении до которой содержащийся в воздухе водяной пар достигнет насыщения.
  • f - Относительная влажность воздуха - влажноcть воздуха, измеренная на высоте 2 м над землей.
  • Te - Эффективная температура - температура, которую ощущает одетый по сезону человек в тени. Характеристика душности погоды. При расчете учитывается влияние влажности воздуха и скорости ветра на теплоощущения человека.
  • Tes - Эффективная температура на солнце - температура, которую ощущает человек, с поправкой на солнечный нагрев. Характеристика знойности погоды. Зависит от высоты солнца над горизонтом, облачности и скорости ветра. Ночью, в пасмурную погоду, а также при ветре 12 м/с и более поправка равна нулю.
  • P - Атмосферное давление - приведенное к уровню моря атмосферное давление.
  • Po - Атмосферное давление - измеренное на уровне метеостанции атмосферное давление.
  • Tmin - Минимальная температура - минимум температуры воздуха на высоте 2 м над землей.
  • Tmax - Максимальная температура - максимум температуры воздуха на высоте 2 м над землей.
  • R - Количество осадков - Количество выпавших осадков за период времени, мм. При наведении курсора мыши на число - период времени, за который выпало указанное количество осадков.
  • R24 - Количество осадков - Количество выпавших осадков за 24 часа, мм.
  • S - Снежный покров - Высота снежного покрова, см. При наведении курсора мыши на число - состояние снежного покрова и степень покрытия местности в баллах.